Location: Caltech
(34.1382°N, 118.1253°W)
Time: 12:22:52
(UTC-07:00)

AO-7 - Visible Passes

Search period start: 05 July 2015 00:00
Search period end: 15 July 2015 00:00
Orbit: 1440 x 1458 km, 101.5° (Epoch: 05 July)

Date Brightness Start Highest point End Pass type
(mag) Time Alt. Az. Time Alt. Az. Time Alt. Az.
05 Jul ? 03:46:55 10° NE 03:53:22 26° E 04:00:07 10° SSE visible
06 Jul ? 04:38:37 10° NNE 04:46:51 59° ESE 04:55:02 10° S visible
07 Jul ? 03:40:19 10° NE 03:46:20 23° E 03:52:42 10° SE visible
08 Jul ? 04:31:46 10° NNE 04:39:52 53° ESE 04:47:58 10° S visible
09 Jul ? 03:33:46 10° NE 03:39:16 20° E 03:45:13 10° SE visible
10 Jul ? 04:24:56 10° NNE 04:32:53 48° E 04:40:52 10° S visible
11 Jul ? 03:27:18 10° NE 03:32:12 18° E 03:37:38 10° SE visible
11 Jul ? 05:17:33 10° NNE 05:25:57 80° WNW 05:34:15 10° SSW visible
12 Jul ? 04:18:06 10° NNE 04:25:54 43° E 04:33:44 10° S visible
13 Jul ? 03:20:56 10° ENE 03:25:07 15° E 03:29:54 10° SE visible
13 Jul ? 05:10:37 10° NNE 05:19:01 88° WNW 05:27:22 10° SSW visible
14 Jul ? 04:11:19 10° NNE 04:18:53 39° E 04:26:33 10° SSE visible
